UAE17K OMDB-LCLK

Flight info

Callsign UAE17K
Flight time 3h 47m
Altitude 34000
Route ANVIX R401 NORGA P574 RUKOR N571 IVOXI DCT ANVIX/N0494F350 L223 TARDI/N0490F370 N629 BOTAM Y855 LAKLU/N0493F360 Q204 NALKI G652 TOKRA DCT ALROK/N0490F380 DCT BOSOB DCT AMBAG M321 KSA T503 TAMRO N318 ITUNO G662 BUSRA L513 RDIMA DCT KAD UR219 KUKLA M31 DESPO
Aircraft B77W/H-SDE1E2E3FGHIJ2J3J4J5M1RWXY/LB1D1

Departure

Time 2026-04-24 09:03
Airport Dubai International Airport (OMDB)

Arrival

Time 2026-04-24 12:51
Airport Larnaca International Airport (LCLK)
Time Latitude Longitude Altitude Speed Heading
2026-04-24 08:28 25.24662 55.36308 29 ft 0 kts 31°
2026-04-24 08:48 25.24647 55.36298 30 ft 4 kts 31°
2026-04-24 08:49 25.24624 55.36282 31 ft 4 kts 31°
2026-04-24 08:49 25.24609 55.36272 31 ft 4 kts 19°
2026-04-24 08:49 25.24585 55.36271 31 ft 4 kts 326°
2026-04-24 08:49 25.24571 55.36287 30 ft 3 kts 302°
2026-04-24 08:50 25.24557 55.36312 31 ft 4 kts 302°
2026-04-24 08:50 25.24549 55.36327 31 ft 0 kts 302°
2026-04-24 08:53 25.24549 55.36326 31 ft 0 kts 302°
2026-04-24 08:53 25.24555 55.36317 31 ft 2 kts 302°
2026-04-24 08:53 25.24570 55.36289 30 ft 8 kts 302°
2026-04-24 08:54 25.24605 55.36227 30 ft 10 kts 302°
2026-04-24 08:54 25.24642 55.36162 30 ft 10 kts 301°
2026-04-24 08:54 25.24692 55.36071 30 ft 16 kts 301°
2026-04-24 08:54 25.24751 55.35965 31 ft 16 kts 302°
2026-04-24 08:55 25.24811 55.35860 28 ft 16 kts 302°
2026-04-24 08:55 25.24879 55.35743 29 ft 20 kts 304°
2026-04-24 08:55 25.24960 55.35619 30 ft 20 kts 304°
2026-04-24 08:55 25.25038 55.35482 31 ft 22 kts 301°
2026-04-24 08:56 25.25119 55.35338 30 ft 22 kts 302°
2026-04-24 08:56 25.25209 55.35201 27 ft 22 kts 304°
2026-04-24 08:56 25.25292 55.35059 30 ft 22 kts 302°
2026-04-24 08:56 25.25377 55.34919 29 ft 22 kts 314°
2026-04-24 08:57 25.25504 55.34922 30 ft 20 kts 31°
2026-04-24 08:57 25.25622 55.35000 29 ft 20 kts 32°
2026-04-24 08:57 25.25713 55.35062 30 ft 14 kts 31°
2026-04-24 08:57 25.25743 55.35152 28 ft 14 kts 94°
2026-04-24 08:58 25.25798 55.35233 32 ft 14 kts 32°
2026-04-24 08:58 25.25899 55.35301 30 ft 25 kts 31°
2026-04-24 08:58 25.26010 55.35472 26 ft 30 kts 93°
2026-04-24 08:58 25.25922 55.35677 26 ft 30 kts 121°
2026-04-24 08:59 25.25812 55.35874 27 ft 30 kts 123°
2026-04-24 08:59 25.25701 55.36068 27 ft 30 kts 122°
2026-04-24 08:59 25.25590 55.36264 27 ft 30 kts 122°
2026-04-24 08:59 25.25480 55.36460 27 ft 30 kts 121°
2026-04-24 09:00 25.25372 55.36656 26 ft 30 kts 121°
2026-04-24 09:00 25.25261 55.36852 27 ft 30 kts 122°
2026-04-24 09:00 25.25151 55.37047 28 ft 30 kts 121°
2026-04-24 09:00 25.25041 55.37242 28 ft 30 kts 122°
2026-04-24 09:01 25.24932 55.37435 28 ft 30 kts 122°
2026-04-24 09:01 25.24821 55.37633 28 ft 30 kts 121°
2026-04-24 09:01 25.24714 55.37822 27 ft 22 kts 122°
2026-04-24 09:01 25.24663 55.37915 27 ft 10 kts 114°
2026-04-24 09:02 25.24701 55.37975 28 ft 11 kts 35°
2026-04-24 09:02 25.24763 55.38019 30 ft 11 kts 23°
2026-04-24 09:02 25.24824 55.37988 30 ft 11 kts 304°
2026-04-24 09:02 25.24882 55.37889 30 ft 30 kts 303°
2026-04-24 09:03 25.25131 55.37442 32 ft 105 kts 301°
2026-04-24 09:03 25.25627 55.36553 31 ft 164 kts 302°
2026-04-24 09:03 25.26233 55.35433 532 ft 164 kts 301°
2026-04-24 09:03 25.26776 55.34328 1138 ft 167 kts 303°
2026-04-24 09:04 25.27394 55.33216 1701 ft 173 kts 303°
2026-04-24 09:04 25.28064 55.32043 2198 ft 188 kts 305°
2026-04-24 09:04 25.28760 55.30818 2918 ft 189 kts 305°
2026-04-24 09:04 25.29333 55.29508 3469 ft 197 kts 278°
2026-04-24 09:05 25.29029 55.28020 4022 ft 204 kts 244°
2026-04-24 09:05 25.28374 55.26612 4606 ft 207 kts 244°
2026-04-24 09:05 25.27750 55.25178 5304 ft 204 kts 243°
2026-04-24 09:05 25.27140 55.23764 5978 ft 203 kts 243°
2026-04-24 09:06 25.26537 55.22360 6608 ft 202 kts 243°
2026-04-24 09:06 25.25925 55.20934 7057 ft 212 kts 243°
2026-04-24 09:06 25.25262 55.19384 7349 ft 231 kts 243°
2026-04-24 09:06 25.24467 55.17807 7786 ft 240 kts 226°
2026-04-24 09:07 25.23046 55.16840 8352 ft 249 kts 194°
2026-04-24 09:07 25.21284 55.16740 8852 ft 259 kts 179°
2026-04-24 09:07 25.17950 55.18272 9930 ft 287 kts 130°
2026-04-24 09:08 25.16925 55.20222 10306 ft 300 kts 120°
2026-04-24 09:08 25.15960 55.22300 10967 ft 307 kts 120°
2026-04-24 09:08 25.14968 55.24405 11793 ft 310 kts 120°
2026-04-24 09:08 25.13961 55.26522 12748 ft 312 kts 120°
2026-04-24 09:09 25.12946 55.28652 13695 ft 316 kts 120°
2026-04-24 09:09 25.11912 55.30808 14506 ft 320 kts 120°
2026-04-24 09:09 25.10855 55.33005 15230 ft 328 kts 120°
2026-04-24 09:09 25.09845 55.35300 15992 ft 336 kts 116°
2026-04-24 09:10 25.08884 55.37679 16790 ft 342 kts 116°
2026-04-24 09:10 25.07907 55.40096 17617 ft 347 kts 116°
2026-04-24 09:10 25.06913 55.42554 18352 ft 356 kts 115°
2026-04-24 09:10 25.05911 55.45142 18604 ft 380 kts 114°
2026-04-24 09:11 25.04867 55.47888 18772 ft 405 kts 114°
2026-04-24 09:11 25.03743 55.50830 18936 ft 428 kts 114°
2026-04-24 09:11 25.02557 55.53914 19253 ft 443 kts 114°
2026-04-24 09:11 25.01272 55.57033 19792 ft 450 kts 119°
2026-04-24 09:12 24.99690 55.60028 20424 ft 454 kts 123°
2026-04-24 09:12 24.97979 55.62970 21108 ft 457 kts 124°
2026-04-24 09:12 24.96281 55.65954 21810 ft 461 kts 123°
2026-04-24 09:12 24.94618 55.68992 22478 ft 465 kts 122°
2026-04-24 09:13 24.92899 55.72020 23108 ft 468 kts 126°
2026-04-24 09:13 24.90981 55.74937 23673 ft 472 kts 129°
2026-04-24 09:13 24.88975 55.77819 24177 ft 476 kts 129°
2026-04-24 09:13 24.86969 55.80733 24682 ft 480 kts 128°
2026-04-24 09:14 24.84982 55.83698 25187 ft 484 kts 127°
2026-04-24 09:14 24.82736 55.87080 25725 ft 489 kts 128°
2026-04-24 09:14 24.80617 55.90002 26081 ft 490 kts 136°
2026-04-24 09:14 24.77874 55.92233 26434 ft 491 kts 155°
2026-04-24 09:15 24.74717 55.93485 26938 ft 489 kts 169°
2026-04-24 09:15 24.71307 55.93849 27461 ft 486 kts 184°
2026-04-24 09:15 24.67922 55.93629 27925 ft 489 kts 186°
2026-04-24 09:15 24.64562 55.93404 28309 ft 490 kts 188°
2026-04-24 09:16 24.61213 55.92657 28581 ft 492 kts 201°
2026-04-24 09:16 24.58071 55.91168 28938 ft 492 kts 211°
2026-04-24 09:16 24.55261 55.89053 29356 ft 488 kts 223°
2026-04-24 09:16 24.52732 55.86548 29726 ft 491 kts 225°
2026-04-24 09:17 24.50210 55.84009 30054 ft 494 kts 224°
2026-04-24 09:17 24.47665 55.81483 30478 ft 493 kts 224°
2026-04-24 09:17 24.45105 55.78988 31010 ft 490 kts 224°
2026-04-24 09:17 24.42550 55.76529 31565 ft 486 kts 224°
2026-04-24 09:18 24.40011 55.74096 32114 ft 483 kts 224°
2026-04-24 09:18 24.37491 55.71680 32620 ft 481 kts 224°
2026-04-24 09:18 24.34971 55.69263 33099 ft 479 kts 224°
2026-04-24 09:18 24.33315 55.67674 33422 ft 478 kts 224°
2026-04-24 09:19 24.30816 55.65277 33893 ft 476 kts 225°
2026-04-24 09:19 24.28234 55.63009 34284 ft 477 kts 218°
2026-04-24 09:19 24.25373 55.61129 34595 ft 483 kts 212°
2026-04-24 09:19 24.21274 55.59149 34979 ft 489 kts 204°
2026-04-24 09:20 24.19064 55.58421 35185 ft 493 kts 200°
2026-04-24 09:20 24.14667 55.57166 35574 ft 494 kts 200°
2026-04-24 09:20 24.12420 55.56535 35770 ft 494 kts 200°
2026-04-24 09:20 24.09086 55.55579 35850 ft 498 kts 201°
2026-04-24 09:21 24.02396 55.53590 35893 ft 497 kts 201°
2026-04-24 09:21 23.95766 55.51612 35884 ft 491 kts 201°
2026-04-24 09:22 23.89216 55.49667 35894 ft 490 kts 201°
2026-04-24 09:22 23.82638 55.47714 35893 ft 489 kts 201°
2026-04-24 09:23 23.76060 55.45761 35879 ft 490 kts 201°
2026-04-24 09:23 23.69473 55.43806 35862 ft 491 kts 201°
2026-04-24 09:24 23.62869 55.41848 35886 ft 492 kts 201°
2026-04-24 09:24 23.56295 55.39902 35877 ft 493 kts 201°
2026-04-24 09:25 23.49655 55.37938 35876 ft 494 kts 201°
2026-04-24 09:25 23.43015 55.35976 35868 ft 495 kts 201°
2026-04-24 09:26 23.36361 55.34010 35861 ft 495 kts 201°
2026-04-24 09:26 23.29711 55.32047 35868 ft 495 kts 201°
2026-04-24 09:27 23.23053 55.30084 35860 ft 496 kts 201°
2026-04-24 09:27 23.16389 55.28121 35861 ft 496 kts 201°
2026-04-24 09:28 23.09726 55.26160 35845 ft 496 kts 201°
2026-04-24 09:28 23.06469 55.25040 35842 ft 484 kts 211°
2026-04-24 09:28 23.03681 55.23127 35854 ft 468 kts 227°
2026-04-24 09:29 23.01486 55.20579 35859 ft 458 kts 239°
2026-04-24 09:29 22.99943 55.17663 35852 ft 447 kts 250°
2026-04-24 09:29 22.97375 55.11481 35843 ft 451 kts 250°
2026-04-24 09:30 22.94261 55.04231 35837 ft 455 kts 249°
2026-04-24 09:30 22.92006 54.99059 35842 ft 457 kts 249°
2026-04-24 09:31 22.89278 54.92828 35829 ft 457 kts 249°
2026-04-24 09:31 22.86550 54.86601 35823 ft 456 kts 249°
2026-04-24 09:32 22.83832 54.80402 35822 ft 454 kts 249°
2026-04-24 09:32 22.81120 54.74221 35816 ft 453 kts 249°
2026-04-24 09:33 22.78432 54.68104 35824 ft 451 kts 249°
2026-04-24 09:33 22.75734 54.61968 35818 ft 451 kts 249°
2026-04-24 09:34 22.73036 54.55841 35825 ft 450 kts 249°
2026-04-24 09:34 22.70337 54.49721 35819 ft 450 kts 249°
2026-04-24 09:35 22.67640 54.43608 35835 ft 450 kts 249°
2026-04-24 09:35 22.64941 54.37485 35818 ft 450 kts 249°
2026-04-24 09:36 22.62244 54.31374 35828 ft 450 kts 249°
2026-04-24 09:36 22.59538 54.25255 35824 ft 451 kts 249°
2026-04-24 09:37 22.56828 54.19137 35824 ft 451 kts 249°
2026-04-24 09:37 22.54119 54.13028 35825 ft 451 kts 249°
2026-04-24 09:38 22.51422 54.06951 35813 ft 451 kts 249°
2026-04-24 09:38 22.49503 54.00612 35840 ft 440 kts 266°
2026-04-24 09:39 22.49551 53.94031 35820 ft 437 kts 280°
2026-04-24 09:39 22.50682 53.87570 35830 ft 438 kts 281°
2026-04-24 09:40 22.51842 53.81097 35838 ft 439 kts 281°
2026-04-24 09:40 22.52977 53.74595 35829 ft 441 kts 281°
2026-04-24 09:41 22.54094 53.68075 35837 ft 441 kts 281°
2026-04-24 09:41 22.55196 53.61588 35830 ft 441 kts 281°
2026-04-24 09:42 22.56309 53.55018 35837 ft 441 kts 281°
2026-04-24 09:42 22.57404 53.48535 35832 ft 440 kts 281°
2026-04-24 09:43 22.58504 53.42013 35833 ft 440 kts 281°
2026-04-24 09:43 22.59599 53.35500 35838 ft 440 kts 281°
2026-04-24 09:44 22.60691 53.28993 35837 ft 439 kts 281°
2026-04-24 09:44 22.61779 53.22494 35850 ft 439 kts 280°
2026-04-24 09:45 22.62864 53.15992 35838 ft 439 kts 280°
2026-04-24 09:45 22.63945 53.09494 35841 ft 439 kts 280°
2026-04-24 09:46 22.65018 53.03035 35843 ft 439 kts 280°
2026-04-24 09:46 22.66095 52.96533 35850 ft 439 kts 280°
2026-04-24 09:47 22.67170 52.90029 35848 ft 439 kts 280°
2026-04-24 09:47 22.68242 52.83520 35842 ft 439 kts 280°
2026-04-24 09:48 22.69313 52.77004 35843 ft 439 kts 280°
2026-04-24 09:48 22.70380 52.70491 35851 ft 439 kts 279°
2026-04-24 09:49 22.71446 52.63975 35848 ft 439 kts 279°
2026-04-24 09:49 22.72502 52.57497 35852 ft 440 kts 279°
2026-04-24 09:50 22.73563 52.50973 35852 ft 440 kts 279°
2026-04-24 09:50 22.74622 52.44444 35853 ft 440 kts 279°
2026-04-24 09:51 22.75678 52.37916 35850 ft 440 kts 279°
2026-04-24 09:51 22.76732 52.31381 35851 ft 440 kts 279°
2026-04-24 09:52 22.77783 52.24850 35855 ft 440 kts 279°
2026-04-24 09:52 22.78831 52.18316 35855 ft 440 kts 279°
2026-04-24 09:53 22.79877 52.11779 35850 ft 440 kts 279°
2026-04-24 09:53 22.80919 52.05252 35856 ft 440 kts 279°
2026-04-24 09:54 22.81959 51.98721 35862 ft 439 kts 279°
2026-04-24 09:54 22.82994 51.92200 35856 ft 439 kts 279°
2026-04-24 09:55 22.84027 51.85676 35857 ft 439 kts 279°
2026-04-24 09:55 22.85049 51.79204 35852 ft 438 kts 279°
2026-04-24 09:56 22.86074 51.72692 35860 ft 438 kts 279°
2026-04-24 09:56 22.87097 51.66178 35858 ft 438 kts 279°
2026-04-24 09:57 22.88117 51.59658 35860 ft 438 kts 278°
2026-04-24 09:57 22.89136 51.53135 35857 ft 439 kts 278°
2026-04-24 09:58 22.90153 51.46600 35863 ft 440 kts 278°
2026-04-24 09:58 22.91170 51.40053 35863 ft 440 kts 278°
2026-04-24 09:59 22.92186 51.33494 35866 ft 441 kts 278°
2026-04-24 09:59 22.93200 51.26927 35866 ft 441 kts 278°
2026-04-24 10:00 22.94212 51.20354 35868 ft 442 kts 278°
2026-04-24 10:00 22.95221 51.13783 35864 ft 442 kts 278°
2026-04-24 10:01 22.96228 51.07208 35866 ft 442 kts 278°
2026-04-24 10:01 22.97232 51.00632 35869 ft 442 kts 278°
2026-04-24 10:02 22.98232 50.94062 35869 ft 441 kts 278°
2026-04-24 10:02 22.99223 50.87530 35884 ft 441 kts 279°
2026-04-24 10:03 23.00217 50.80966 35869 ft 440 kts 279°
2026-04-24 10:03 23.01205 50.74421 35866 ft 439 kts 279°
2026-04-24 10:04 23.02188 50.67894 35868 ft 438 kts 278°
2026-04-24 10:04 23.03166 50.61375 35878 ft 437 kts 278°
2026-04-24 10:05 23.04127 50.54953 35871 ft 436 kts 278°
2026-04-24 10:05 23.05092 50.48488 35868 ft 435 kts 278°
2026-04-24 10:06 23.06535 50.38785 35874 ft 435 kts 278°
2026-04-24 10:07 23.07500 50.32268 35880 ft 434 kts 278°
2026-04-24 10:07 23.08456 50.25799 35875 ft 434 kts 278°
2026-04-24 10:08 23.09406 50.19347 35874 ft 434 kts 278°
2026-04-24 10:08 23.10355 50.12886 35875 ft 434 kts 278°
2026-04-24 10:09 23.11152 50.07445 35872 ft 435 kts 278°
2026-04-24 10:09 23.12097 50.00974 35871 ft 435 kts 278°
2026-04-24 10:10 23.13040 49.94500 35868 ft 435 kts 278°
2026-04-24 10:10 23.13980 49.88031 35872 ft 435 kts 278°
2026-04-24 10:11 23.14926 49.81496 35869 ft 436 kts 278°
2026-04-24 10:11 23.15862 49.75013 35879 ft 436 kts 277°
2026-04-24 10:12 23.16795 49.68524 35876 ft 436 kts 278°
2026-04-24 10:12 23.17738 49.61961 35873 ft 437 kts 278°
2026-04-24 10:13 23.18671 49.55438 35872 ft 438 kts 278°
2026-04-24 10:13 23.19603 49.48905 35868 ft 438 kts 278°
2026-04-24 10:14 23.20531 49.42370 35876 ft 439 kts 278°
2026-04-24 10:14 23.21460 49.35819 35873 ft 440 kts 278°
2026-04-24 10:15 23.22395 49.29207 35883 ft 440 kts 277°
2026-04-24 10:15 23.23317 49.22666 35864 ft 439 kts 277°
2026-04-24 10:16 23.24236 49.16120 35891 ft 438 kts 277°
2026-04-24 10:16 23.25152 49.09585 35889 ft 438 kts 277°
2026-04-24 10:17 23.26071 49.03001 35872 ft 437 kts 277°
2026-04-24 10:17 23.26979 48.96474 35877 ft 437 kts 277°
2026-04-24 10:18 23.27883 48.89963 35878 ft 436 kts 277°
2026-04-24 10:18 23.28782 48.83457 35877 ft 435 kts 277°
2026-04-24 10:19 23.29677 48.76971 35875 ft 435 kts 277°
2026-04-24 10:19 23.30569 48.70475 35888 ft 435 kts 277°
2026-04-24 10:20 23.31466 48.63927 35897 ft 435 kts 277°
2026-04-24 10:20 23.32352 48.57442 35887 ft 435 kts 277°
2026-04-24 10:21 23.33236 48.50949 35889 ft 435 kts 277°
2026-04-24 10:21 23.34125 48.44394 35894 ft 435 kts 277°
2026-04-24 10:22 23.35004 48.37897 35896 ft 434 kts 277°
2026-04-24 10:22 23.35879 48.31415 35891 ft 434 kts 277°
2026-04-24 10:23 23.36749 48.24942 35893 ft 433 kts 276°
2026-04-24 10:23 23.37623 48.18412 35896 ft 433 kts 276°
2026-04-24 10:24 23.38487 48.11955 35908 ft 432 kts 276°
2026-04-24 10:24 23.39345 48.05506 35901 ft 431 kts 276°
2026-04-24 10:25 23.40200 47.99063 35888 ft 431 kts 276°
2026-04-24 10:25 23.41060 47.92565 35903 ft 431 kts 276°
2026-04-24 10:26 23.41907 47.86129 35912 ft 432 kts 276°
2026-04-24 10:26 23.42755 47.79678 35915 ft 432 kts 276°
2026-04-24 10:27 23.43611 47.73148 35915 ft 434 kts 276°
2026-04-24 10:27 23.44459 47.66646 35920 ft 435 kts 276°
2026-04-24 10:28 23.45308 47.60126 35924 ft 436 kts 276°
2026-04-24 10:28 23.46890 47.53767 35926 ft 446 kts 295°
2026-04-24 10:29 23.50912 47.48470 35913 ft 464 kts 317°
2026-04-24 10:29 23.56427 47.44711 35929 ft 470 kts 322°
2026-04-24 10:30 23.62014 47.41053 35945 ft 470 kts 322°
2026-04-24 10:30 23.67571 47.37332 35930 ft 470 kts 321°
2026-04-24 10:31 23.73153 47.33539 35937 ft 470 kts 321°
2026-04-24 10:31 23.78677 47.29772 35932 ft 470 kts 321°
2026-04-24 10:32 23.84206 47.26000 35940 ft 470 kts 321°
2026-04-24 10:32 23.89732 47.22228 35939 ft 470 kts 321°
2026-04-24 10:33 23.95309 47.18417 35942 ft 470 kts 321°
2026-04-24 10:33 24.00845 47.14632 35939 ft 470 kts 321°
2026-04-24 10:34 24.06378 47.10843 35947 ft 470 kts 321°
2026-04-24 10:34 24.11976 47.07151 35955 ft 475 kts 325°
2026-04-24 10:35 24.18107 47.04192 35969 ft 480 kts 330°
2026-04-24 10:35 24.24261 47.01393 35957 ft 480 kts 330°
2026-04-24 10:36 24.30411 46.98563 35957 ft 480 kts 329°
2026-04-24 10:36 24.36544 46.95710 35956 ft 480 kts 329°
2026-04-24 10:37 24.42732 46.92822 35972 ft 481 kts 329°
2026-04-24 10:37 24.48872 46.89953 35960 ft 481 kts 329°
2026-04-24 10:38 24.55003 46.87087 35967 ft 480 kts 329°
2026-04-24 10:38 24.61134 46.84218 35978 ft 480 kts 329°
2026-04-24 10:39 24.67263 46.81348 35978 ft 480 kts 329°
2026-04-24 10:39 24.73438 46.78452 35965 ft 480 kts 329°
2026-04-24 10:40 24.79552 46.75582 35971 ft 480 kts 329°
2026-04-24 10:40 24.85679 46.72700 35969 ft 480 kts 329°
2026-04-24 10:41 24.91865 46.69790 35965 ft 481 kts 329°
2026-04-24 10:41 24.97712 46.66448 35993 ft 469 kts 319°
2026-04-24 10:42 25.02815 46.62114 35976 ft 459 kts 310°
2026-04-24 10:42 25.07481 46.57314 35972 ft 459 kts 309°
2026-04-24 10:43 25.12132 46.52504 35982 ft 460 kts 309°
2026-04-24 10:43 25.16802 46.47706 35992 ft 459 kts 310°
2026-04-24 10:44 25.21512 46.42883 35981 ft 458 kts 310°
2026-04-24 10:44 25.26165 46.38117 35997 ft 456 kts 309°
2026-04-24 10:45 25.30800 46.33362 36001 ft 455 kts 309°
2026-04-24 10:45 25.35415 46.28623 35988 ft 454 kts 309°
2026-04-24 10:46 25.40011 46.23896 35995 ft 452 kts 309°
2026-04-24 10:46 25.44599 46.19172 35993 ft 451 kts 309°
2026-04-24 10:47 25.49210 46.14419 36000 ft 451 kts 309°
2026-04-24 10:47 25.53788 46.09695 35995 ft 451 kts 309°
2026-04-24 10:48 25.58371 46.04960 35995 ft 452 kts 309°
2026-04-24 10:48 25.63002 46.00173 36016 ft 453 kts 310°
2026-04-24 10:49 25.67610 45.95406 36000 ft 456 kts 310°
2026-04-24 10:49 25.72250 45.90602 36005 ft 459 kts 310°
2026-04-24 10:50 25.76918 45.85761 36009 ft 462 kts 310°
2026-04-24 10:50 25.81655 45.80844 36002 ft 464 kts 310°
2026-04-24 10:51 25.86356 45.75960 35994 ft 465 kts 309°
2026-04-24 10:51 25.91070 45.71060 36008 ft 466 kts 309°
2026-04-24 10:52 25.95787 45.66154 36013 ft 466 kts 309°
2026-04-24 10:52 26.00544 45.61198 36015 ft 466 kts 309°
2026-04-24 10:53 26.05259 45.56281 36008 ft 466 kts 309°
2026-04-24 10:53 26.09966 45.51365 36022 ft 466 kts 309°
2026-04-24 10:54 26.14672 45.46443 36016 ft 465 kts 309°
2026-04-24 10:54 26.19412 45.41478 36015 ft 465 kts 309°
2026-04-24 10:55 26.24097 45.36546 36009 ft 465 kts 309°
2026-04-24 10:55 26.28779 45.31611 36012 ft 466 kts 309°
2026-04-24 10:56 26.33528 45.26614 36012 ft 467 kts 309°
2026-04-24 10:56 26.38259 45.21653 36012 ft 469 kts 309°
2026-04-24 10:57 26.43006 45.16668 36022 ft 470 kts 309°
2026-04-24 10:57 26.47757 45.11670 36010 ft 471 kts 308°
2026-04-24 10:58 26.52507 45.06664 35985 ft 471 kts 308°
2026-04-24 10:58 26.57297 45.01612 36037 ft 469 kts 308°
2026-04-24 10:59 26.61957 44.96706 36006 ft 455 kts 308°
2026-04-24 10:59 26.66539 44.91866 36009 ft 455 kts 308°
2026-04-24 11:00 26.71134 44.87002 35997 ft 457 kts 308°
2026-04-24 11:00 26.75010 44.82902 36000 ft 457 kts 308°
2026-04-24 11:01 26.79620 44.78016 35995 ft 458 kts 308°
2026-04-24 11:01 26.84214 44.73122 35991 ft 458 kts 308°
2026-04-24 11:02 26.88861 44.68164 35989 ft 458 kts 308°
2026-04-24 11:02 26.93461 44.63251 35996 ft 458 kts 308°
2026-04-24 11:03 26.98060 44.58336 35988 ft 458 kts 308°
2026-04-24 11:03 27.02691 44.53392 35980 ft 457 kts 308°
2026-04-24 11:04 27.07278 44.48500 35974 ft 455 kts 308°
2026-04-24 11:04 27.11850 44.43614 35976 ft 455 kts 308°
2026-04-24 11:05 27.16418 44.38726 35988 ft 455 kts 308°
2026-04-24 11:05 27.21025 44.33788 35988 ft 455 kts 308°
2026-04-24 11:06 27.25591 44.28887 35993 ft 456 kts 308°
2026-04-24 11:06 27.30177 44.23956 35975 ft 457 kts 308°
2026-04-24 11:07 27.37059 44.16548 35980 ft 458 kts 307°
2026-04-24 11:07 27.41703 44.11541 35986 ft 459 kts 307°
2026-04-24 11:08 27.46314 44.06564 35990 ft 459 kts 307°
2026-04-24 11:08 27.50930 44.01574 36003 ft 460 kts 307°
2026-04-24 11:09 27.55545 43.96581 35989 ft 460 kts 307°
2026-04-24 11:09 27.60160 43.91581 35986 ft 460 kts 307°
2026-04-24 11:10 27.64766 43.86583 35981 ft 459 kts 307°
2026-04-24 11:10 27.69373 43.81579 35994 ft 459 kts 307°
2026-04-24 11:11 27.73941 43.76611 35985 ft 459 kts 307°
2026-04-24 11:11 27.78539 43.71603 35976 ft 459 kts 307°
2026-04-24 11:12 27.83128 43.66600 35971 ft 458 kts 307°
2026-04-24 11:12 27.87628 43.61522 35986 ft 455 kts 305°
2026-04-24 11:13 27.91930 43.56282 35975 ft 455 kts 304°
2026-04-24 11:13 27.96224 43.51028 35975 ft 455 kts 304°
2026-04-24 11:14 28.00550 43.45782 35980 ft 455 kts 304°
2026-04-24 11:14 28.04884 43.40545 35987 ft 457 kts 305°
2026-04-24 11:15 28.09245 43.35273 35986 ft 459 kts 305°
2026-04-24 11:15 28.13593 43.30011 35984 ft 462 kts 305°
2026-04-24 11:16 28.17989 43.24683 35974 ft 463 kts 305°
2026-04-24 11:16 28.22395 43.19337 35979 ft 465 kts 304°
2026-04-24 11:17 28.26809 43.13973 35974 ft 465 kts 304°
2026-04-24 11:17 28.31224 43.08602 35970 ft 465 kts 304°
2026-04-24 11:18 28.35632 43.03232 35968 ft 464 kts 304°
2026-04-24 11:18 28.40030 42.97868 35977 ft 463 kts 304°
2026-04-24 11:19 28.44413 42.92513 35972 ft 462 kts 304°
2026-04-24 11:19 28.48780 42.87171 35970 ft 461 kts 303°
2026-04-24 11:20 28.53130 42.81842 35963 ft 459 kts 303°
2026-04-24 11:20 28.57466 42.76523 35965 ft 458 kts 303°
2026-04-24 11:21 28.61764 42.71244 35966 ft 457 kts 303°
2026-04-24 11:21 28.65786 42.65686 35965 ft 445 kts 294°
2026-04-24 11:22 28.69097 42.59752 35988 ft 444 kts 293°
2026-04-24 11:22 28.72400 42.53808 35973 ft 445 kts 293°
2026-04-24 11:23 28.75706 42.47896 35966 ft 445 kts 293°
2026-04-24 11:23 28.79041 42.41947 35963 ft 446 kts 293°
2026-04-24 11:24 28.82379 42.35986 35972 ft 446 kts 293°
2026-04-24 11:24 28.85715 42.30019 35965 ft 446 kts 293°
2026-04-24 11:25 28.89047 42.24050 35965 ft 446 kts 293°
2026-04-24 11:25 28.92372 42.18085 35981 ft 446 kts 293°
2026-04-24 11:26 28.95701 42.12102 35965 ft 446 kts 293°
2026-04-24 11:26 28.99025 42.06121 35968 ft 446 kts 293°
2026-04-24 11:27 29.02327 42.00169 35965 ft 446 kts 293°
2026-04-24 11:27 29.05653 41.94169 35963 ft 447 kts 293°
2026-04-24 11:28 29.08977 41.88170 35960 ft 446 kts 293°
2026-04-24 11:28 29.12295 41.82176 35961 ft 446 kts 293°
2026-04-24 11:29 29.15607 41.76181 35980 ft 445 kts 293°
2026-04-24 11:29 29.18916 41.70181 35965 ft 446 kts 293°
2026-04-24 11:30 29.22226 41.64171 35961 ft 446 kts 293°
2026-04-24 11:30 29.25537 41.58152 35963 ft 447 kts 293°
2026-04-24 11:31 29.28844 41.52128 35978 ft 448 kts 293°
2026-04-24 11:31 29.32164 41.46073 35967 ft 449 kts 293°
2026-04-24 11:32 29.35486 41.40009 35965 ft 449 kts 293°
2026-04-24 11:32 29.38805 41.33937 35990 ft 450 kts 293°
2026-04-24 11:33 29.42126 41.27849 35965 ft 450 kts 293°
2026-04-24 11:33 29.45445 41.21754 35966 ft 450 kts 293°
2026-04-24 11:34 29.48759 41.15658 35962 ft 450 kts 293°
2026-04-24 11:34 29.52068 41.09564 35973 ft 450 kts 293°
2026-04-24 11:35 29.55354 41.03502 35964 ft 450 kts 293°
2026-04-24 11:35 29.58655 40.97405 35967 ft 449 kts 293°
2026-04-24 11:36 29.61954 40.91302 35977 ft 449 kts 293°
2026-04-24 11:36 29.65250 40.85191 35967 ft 450 kts 293°
2026-04-24 11:37 29.68549 40.79068 35970 ft 451 kts 293°
2026-04-24 11:37 29.71855 40.72923 35973 ft 451 kts 293°
2026-04-24 11:38 29.75160 40.66774 35978 ft 452 kts 294°
2026-04-24 11:38 29.78705 40.60748 35976 ft 457 kts 298°
2026-04-24 11:39 29.82574 40.54922 35970 ft 458 kts 299°
2026-04-24 11:39 29.86410 40.49130 35964 ft 458 kts 299°
2026-04-24 11:40 29.90248 40.43285 35973 ft 458 kts 299°
2026-04-24 11:40 29.94085 40.37421 35959 ft 458 kts 299°
2026-04-24 11:41 29.97923 40.31549 35962 ft 458 kts 298°
2026-04-24 11:41 30.01757 40.25677 35962 ft 458 kts 298°
2026-04-24 11:42 30.05592 40.19787 35951 ft 459 kts 298°
2026-04-24 11:42 30.09421 40.13894 35948 ft 459 kts 298°
2026-04-24 11:43 30.13251 40.07993 35950 ft 458 kts 298°
2026-04-24 11:43 30.17070 40.02100 35974 ft 458 kts 298°
2026-04-24 11:44 30.20863 39.96238 35955 ft 458 kts 298°
2026-04-24 11:44 30.24674 39.90340 35976 ft 458 kts 298°
2026-04-24 11:45 30.28480 39.84441 35964 ft 457 kts 298°
2026-04-24 11:45 30.32269 39.78559 35965 ft 455 kts 298°
2026-04-24 11:46 30.36053 39.72675 35951 ft 455 kts 298°
2026-04-24 11:46 30.39824 39.66802 35957 ft 453 kts 297°
2026-04-24 11:47 30.43058 39.60651 35948 ft 442 kts 288°
2026-04-24 11:47 30.45795 39.54268 35962 ft 443 kts 288°
2026-04-24 11:48 30.48082 39.48950 35958 ft 444 kts 288°
2026-04-24 11:48 30.50859 39.42529 35950 ft 446 kts 289°
2026-04-24 11:49 30.53648 39.36096 35944 ft 446 kts 289°
2026-04-24 11:49 30.56439 39.29648 35942 ft 447 kts 289°
2026-04-24 11:50 30.59212 39.23232 35937 ft 448 kts 289°
2026-04-24 11:50 30.62002 39.16763 35929 ft 448 kts 289°
2026-04-24 11:51 30.64788 39.10294 35945 ft 448 kts 289°
2026-04-24 11:51 30.67573 39.03810 35929 ft 449 kts 289°
2026-04-24 11:52 30.70359 38.97315 35924 ft 450 kts 289°
2026-04-24 11:52 30.73148 38.90804 35921 ft 450 kts 289°
2026-04-24 11:53 30.75938 38.84278 35921 ft 452 kts 289°
2026-04-24 11:53 30.78724 38.77724 35925 ft 451 kts 288°
2026-04-24 11:54 30.80987 38.70981 35920 ft 446 kts 283°
2026-04-24 11:54 30.83091 38.64176 35924 ft 447 kts 283°
2026-04-24 11:55 30.85209 38.57355 35915 ft 449 kts 283°
2026-04-24 11:55 30.87343 38.50521 35912 ft 450 kts 283°
2026-04-24 11:56 30.89481 38.43680 35908 ft 450 kts 283°
2026-04-24 11:56 30.91616 38.36834 35905 ft 450 kts 283°
2026-04-24 11:57 30.93750 38.29973 35907 ft 450 kts 283°
2026-04-24 11:57 30.95876 38.23122 35904 ft 450 kts 283°
2026-04-24 11:58 30.97985 38.16312 35913 ft 449 kts 283°
2026-04-24 11:58 31.00105 38.09449 35894 ft 449 kts 283°
2026-04-24 11:59 31.02218 38.02598 35895 ft 449 kts 283°
2026-04-24 11:59 31.04325 37.95750 35897 ft 449 kts 283°
2026-04-24 12:00 31.06429 37.88896 35897 ft 449 kts 283°
2026-04-24 12:00 31.08531 37.82033 35895 ft 449 kts 283°
2026-04-24 12:01 31.10627 37.75173 35898 ft 449 kts 283°
2026-04-24 12:01 31.12722 37.68305 35905 ft 450 kts 283°
2026-04-24 12:02 31.15137 37.61537 35890 ft 458 kts 293°
2026-04-24 12:02 31.18795 37.55366 35895 ft 469 kts 304°
2026-04-24 12:03 31.23383 37.49879 35897 ft 473 kts 308°
2026-04-24 12:03 31.28056 37.44459 35898 ft 473 kts 308°
2026-04-24 12:04 31.32676 37.38992 35885 ft 472 kts 308°
2026-04-24 12:04 31.37273 37.33508 35906 ft 472 kts 308°
2026-04-24 12:05 31.42094 37.28272 35885 ft 476 kts 315°
2026-04-24 12:05 31.47678 37.23986 35893 ft 481 kts 322°
2026-04-24 12:06 31.53354 37.19963 35883 ft 480 kts 322°
2026-04-24 12:06 31.58985 37.15783 35891 ft 477 kts 321°
2026-04-24 12:07 31.64539 37.11519 35887 ft 477 kts 320°
2026-04-24 12:07 31.70097 37.07262 35899 ft 477 kts 320°
2026-04-24 12:08 31.75669 37.03009 35891 ft 477 kts 321°
2026-04-24 12:08 31.81238 36.98756 35906 ft 477 kts 320°
2026-04-24 12:09 31.86908 36.94657 35892 ft 479 kts 323°
2026-04-24 12:09 31.92684 36.90721 35901 ft 480 kts 323°
2026-04-24 12:10 31.98403 36.86780 35913 ft 479 kts 323°
2026-04-24 12:11 32.06986 36.80783 35916 ft 477 kts 323°
2026-04-24 12:11 32.12690 36.76790 35899 ft 476 kts 323°
2026-04-24 12:12 32.18344 36.72735 35923 ft 475 kts 321°
2026-04-24 12:12 32.23936 36.68590 35920 ft 475 kts 321°
2026-04-24 12:13 32.29558 36.64484 35939 ft 477 kts 324°
2026-04-24 12:13 32.35820 36.61544 35941 ft 491 kts 339°
2026-04-24 12:14 32.42605 36.60312 35945 ft 500 kts 348°
2026-04-24 12:14 32.49545 36.59537 35935 ft 501 kts 348°
2026-04-24 12:15 32.56474 36.58695 35939 ft 501 kts 348°
2026-04-24 12:15 32.63402 36.57788 35935 ft 500 kts 347°
2026-04-24 12:16 32.70325 36.56879 35934 ft 501 kts 348°
2026-04-24 12:16 32.77276 36.56057 35939 ft 502 kts 349°
2026-04-24 12:17 32.84244 36.55342 35921 ft 502 kts 349°
2026-04-24 12:17 32.91199 36.54608 35913 ft 501 kts 348°
2026-04-24 12:18 32.98142 36.53838 35916 ft 497 kts 345°
2026-04-24 12:18 33.01445 36.52859 35897 ft 483 kts 331°
2026-04-24 12:18 33.04386 36.51057 35909 ft 471 kts 319°
2026-04-24 12:18 33.06934 36.48680 35918 ft 460 kts 308°
2026-04-24 12:19 33.09043 36.45866 35934 ft 454 kts 304°
2026-04-24 12:19 33.13169 36.40191 35913 ft 458 kts 304°
2026-04-24 12:20 33.17396 36.34464 35901 ft 461 kts 304°
2026-04-24 12:20 33.21663 36.28730 35907 ft 463 kts 305°
2026-04-24 12:21 33.25949 36.22978 35911 ft 463 kts 305°
2026-04-24 12:21 33.30234 36.17217 35887 ft 463 kts 304°
2026-04-24 12:22 33.34505 36.11464 35883 ft 461 kts 304°
2026-04-24 12:22 33.38726 36.05767 35878 ft 460 kts 304°
2026-04-24 12:23 33.42963 36.00039 35880 ft 459 kts 304°
2026-04-24 12:23 33.47184 35.94320 35882 ft 458 kts 304°
2026-04-24 12:24 33.51400 35.88603 35901 ft 458 kts 304°
2026-04-24 12:24 33.55617 35.82872 35899 ft 458 kts 304°
2026-04-24 12:25 33.59827 35.77143 35891 ft 457 kts 304°
2026-04-24 12:25 33.64035 35.71407 35905 ft 459 kts 304°
2026-04-24 12:26 33.68248 35.65662 35933 ft 458 kts 303°
2026-04-24 12:26 33.72433 35.59932 35925 ft 459 kts 303°
2026-04-24 12:27 33.76654 35.54153 35923 ft 459 kts 303°
2026-04-24 12:27 33.80837 35.48360 35938 ft 457 kts 301°
2026-04-24 12:28 33.84558 35.42243 35922 ft 452 kts 297°
2026-04-24 12:28 33.88192 35.36070 35916 ft 451 kts 297°
2026-04-24 12:29 33.91829 35.29909 35919 ft 451 kts 297°
2026-04-24 12:29 33.93653 35.26827 35584 ft 456 kts 297°
2026-04-24 12:29 33.95515 35.23671 34705 ft 464 kts 298°
2026-04-24 12:29 33.97392 35.20499 33773 ft 465 kts 298°
2026-04-24 12:30 33.99274 35.17322 32759 ft 465 kts 298°
2026-04-24 12:30 34.01155 35.14147 31748 ft 466 kts 299°
2026-04-24 12:30 34.03038 35.10963 30733 ft 467 kts 299°
2026-04-24 12:30 34.04912 35.07792 29996 ft 462 kts 299°
2026-04-24 12:31 34.06771 35.04645 29138 ft 458 kts 300°
2026-04-24 12:31 34.08581 35.01576 28387 ft 453 kts 300°
2026-04-24 12:31 34.10395 34.98498 27700 ft 448 kts 300°
2026-04-24 12:31 34.12192 34.95442 27000 ft 444 kts 300°
2026-04-24 12:32 34.13966 34.92421 26293 ft 440 kts 300°
2026-04-24 12:32 34.15726 34.89422 25604 ft 436 kts 300°
2026-04-24 12:32 34.17469 34.86449 24935 ft 432 kts 300°
2026-04-24 12:32 34.19201 34.83492 24268 ft 429 kts 300°
2026-04-24 12:33 34.20921 34.80553 23592 ft 427 kts 300°
2026-04-24 12:33 34.22632 34.77629 22824 ft 425 kts 300°
2026-04-24 12:33 34.24331 34.74724 22125 ft 421 kts 300°
2026-04-24 12:33 34.25992 34.71834 21475 ft 417 kts 300°
2026-04-24 12:34 34.27614 34.68952 20825 ft 413 kts 299°
2026-04-24 12:34 34.29215 34.66088 20175 ft 409 kts 299°
2026-04-24 12:34 34.30802 34.63245 19558 ft 406 kts 300°
2026-04-24 12:34 34.32378 34.60424 18943 ft 404 kts 300°
2026-04-24 12:35 34.33951 34.57614 18321 ft 402 kts 300°
2026-04-24 12:35 34.35515 34.54820 17621 ft 401 kts 300°
2026-04-24 12:35 34.37071 34.52039 16963 ft 398 kts 300°
2026-04-24 12:35 34.38620 34.49271 16325 ft 395 kts 300°
2026-04-24 12:36 34.40134 34.46564 15715 ft 385 kts 301°
2026-04-24 12:36 34.41605 34.43936 15128 ft 375 kts 301°
2026-04-24 12:36 34.43069 34.41326 14547 ft 375 kts 302°
2026-04-24 12:36 34.44711 34.38869 13960 ft 377 kts 309°
2026-04-24 12:37 34.46577 34.36628 13324 ft 379 kts 315°
2026-04-24 12:37 34.48635 34.34632 12701 ft 378 kts 320°
2026-04-24 12:37 34.50745 34.32727 12105 ft 377 kts 321°
2026-04-24 12:37 34.52842 34.30837 11527 ft 373 kts 321°
2026-04-24 12:38 34.54195 34.29617 11134 ft 360 kts 321°
2026-04-24 12:38 34.56138 34.27861 10805 ft 333 kts 321°
2026-04-24 12:38 34.57901 34.26266 10649 ft 302 kts 321°
2026-04-24 12:39 34.62689 34.21898 10342 ft 274 kts 320°
2026-04-24 12:39 34.64192 34.20523 10227 ft 266 kts 320°
2026-04-24 12:39 34.65650 34.19188 10129 ft 259 kts 320°
2026-04-24 12:40 34.67068 34.17890 10037 ft 252 kts 320°
2026-04-24 12:40 34.68467 34.16607 9813 ft 255 kts 320°
2026-04-24 12:40 34.69913 34.15278 9519 ft 265 kts 320°
2026-04-24 12:40 34.71400 34.13913 9186 ft 269 kts 320°
2026-04-24 12:41 34.72894 34.12542 8862 ft 269 kts 321°
2026-04-24 12:41 34.74383 34.11176 8537 ft 268 kts 321°
2026-04-24 12:41 34.75846 34.09833 8221 ft 266 kts 321°
2026-04-24 12:41 34.77323 34.08478 7916 ft 265 kts 321°
2026-04-24 12:42 34.78796 34.07124 7595 ft 265 kts 321°
2026-04-24 12:42 34.80262 34.05776 7279 ft 264 kts 321°
2026-04-24 12:42 34.81724 34.04432 6971 ft 263 kts 321°
2026-04-24 12:42 34.83183 34.03089 6658 ft 263 kts 321°
2026-04-24 12:43 34.84642 34.01746 6333 ft 263 kts 321°
2026-04-24 12:43 34.86100 34.00404 6018 ft 262 kts 321°
2026-04-24 12:43 34.87555 33.99064 5690 ft 262 kts 321°
2026-04-24 12:43 34.88998 33.97733 5472 ft 257 kts 321°
2026-04-24 12:44 34.90400 33.96441 5338 ft 248 kts 321°
2026-04-24 12:44 34.91752 33.95193 5225 ft 237 kts 320°
2026-04-24 12:44 34.92757 33.93708 4974 ft 225 kts 291°
2026-04-24 12:44 34.93228 33.91948 4764 ft 215 kts 289°
2026-04-24 12:45 34.93718 33.90238 4512 ft 211 kts 290°
2026-04-24 12:45 34.94204 33.88568 4242 ft 208 kts 290°
2026-04-24 12:45 34.94682 33.86913 3966 ft 206 kts 290°
2026-04-24 12:45 34.95156 33.85270 3708 ft 204 kts 289°
2026-04-24 12:46 34.95623 33.83653 3458 ft 201 kts 289°
2026-04-24 12:46 34.96075 33.82068 3275 ft 192 kts 289°
2026-04-24 12:46 34.96498 33.80575 3189 ft 189 kts 289°
2026-04-24 12:46 34.96924 33.79076 2946 ft 183 kts 289°
2026-04-24 12:47 34.97331 33.77646 2749 ft 175 kts 288°
2026-04-24 12:47 34.97635 33.76248 2493 ft 169 kts 266°
2026-04-24 12:47 34.97211 33.74952 2365 ft 169 kts 231°
2026-04-24 12:47 34.96467 33.73808 2157 ft 174 kts 230°
2026-04-24 12:48 34.95719 33.72665 1946 ft 169 kts 229°
2026-04-24 12:48 34.94947 33.71627 1730 ft 163 kts 225°
2026-04-24 12:48 34.94147 33.70640 1569 ft 167 kts 224°
2026-04-24 12:48 34.93332 33.69644 1371 ft 163 kts 224°
2026-04-24 12:49 34.92571 33.68715 1150 ft 147 kts 223°
2026-04-24 12:49 34.91873 33.67865 986 ft 139 kts 221°
2026-04-24 12:49 34.91185 33.67028 817 ft 141 kts 221°
2026-04-24 12:49 34.90490 33.66180 677 ft 142 kts 222°
2026-04-24 12:50 34.89806 33.65332 471 ft 143 kts 222°
2026-04-24 12:50 34.89091 33.64480 321 ft 145 kts 223°
2026-04-24 12:50 34.88387 33.63615 115 ft 141 kts 222°
2026-04-24 12:50 34.87705 33.62799 31 ft 126 kts 225°
2026-04-24 12:51 34.87216 33.62202 27 ft 73 kts 225°
2026-04-24 12:51 34.86988 33.61870 31 ft 38 kts 251°
2026-04-24 12:51 34.86928 33.61600 25 ft 27 kts 255°
2026-04-24 12:51 34.86902 33.61473 27 ft 13 kts 253°
2026-04-24 12:52 34.86897 33.61367 26 ft 14 kts 309°
2026-04-24 12:52 34.86957 33.61292 30 ft 10 kts 314°
2026-04-24 12:52 34.87008 33.61232 28 ft 11 kts 316°
2026-04-24 12:52 34.87062 33.61168 30 ft 8 kts 316°
2026-04-24 12:53 34.87062 33.61105 31 ft 9 kts 239°
2026-04-24 12:53 34.87042 33.61067 30 ft 2 kts 236°
2026-04-24 12:53 34.87036 33.61055 28 ft 1 kts 236°